Location: Worth Mountain WMA
(34.9569°N, 81.4819°W)
Time: 03:00:15
(UTC-04:00)

Amateur Radio Satellites - All Passes

Search period start: 28 August 2016 02:30
Search period end: 29 August 2016 02:30
Location: Worth Mountain WMA, 34.9569°N, 81.4819°W

Satellite Date Start Highest point End Downlink Frequencies (MHz)
Time Altitude Azimuth
Gurwin Techsat 1B 28 Aug 02:40:23 02:44:46 26° 96° (E) 02:49:08 435.225
ITUPSAT 1 28 Aug 02:46:54 02:51:28 47° 73° (ENE) 02:56:01 437.325
JAS-2 28 Aug 03:00:02 03:05:33 26° 293° (WNW) 03:11:29 435.910
Oscar 19 28 Aug 03:06:55 03:12:08 74° 285° (WNW) 03:17:17 437.125/150
SWISSCUBE 28 Aug 03:19:41 03:24:23 65° 259° (WSW) 03:29:06 437.505
BEESAT 28 Aug 03:36:56 03:41:31 47° 260° (W) 03:46:06 436.000
KKS-1 28 Aug 03:41:34 03:44:40 19° 68° (ENE) 03:47:47 437.445
RS-15 28 Aug 03:43:47 03:54:28 41° 313° (NW) 04:05:45 29.354- 29.394
MOZHAYETS 4 28 Aug 03:48:28 03:52:21 28° 71° (ENE) 03:56:14
PHONESAT 2.4 28 Aug 03:55:02 03:57:46 31° 351° (N) 04:00:29 2401.200-2431.200
STARS 28 Aug 04:16:22 04:19:43 21° 69° (ENE) 04:23:05 437.465
Gurwin Techsat 1B 28 Aug 04:19:59 04:24:41 33° 290° (WNW) 04:29:23 435.225
ITAMSAT 1 28 Aug 04:21:37 04:26:48 75° 102° (ESE) 04:31:58 435.822/435.867
ITUPSAT 1 28 Aug 04:26:51 04:29:29 15° 267° (W) 04:32:07 437.325
Cosmos 2491 28 Aug 04:29:38 04:34:12 15° 65° (ENE) 04:38:46 435.465 / 435.565
AO-7 28 Aug 04:57:21 05:05:35 63° 104° (ESE) 05:13:44 29.400- 29.500
CUBESAT XI-V 28 Aug 05:09:28 05:13:13 25° 70° (ENE) 05:17:00 437.345
KKS-1 28 Aug 05:16:52 05:20:56 34° 262° (W) 05:25:03 437.445
MOZHAYETS 4 28 Aug 05:25:52 05:29:27 23° 265° (W) 05:33:03
PHONESAT 2.4 28 Aug 05:31:52 05:34:32 29° 7° (N) 05:37:14 2401.200-2431.200
AO-85 28 Aug 05:34:09 05:39:23 56° 115° (ESE) 05:44:25 145.980
YUBILEINY 28 Aug 05:39:36 05:45:28 20° 81° (E) 05:51:19 435.215
STARS 28 Aug 05:52:01 05:55:52 29° 263° (W) 05:59:45 437.465
ITAMSAT 1 28 Aug 06:03:46 06:05:35 12° 298° (WNW) 06:07:24 435.822/435.867
RS-15 28 Aug 06:05:27 06:11:51 15° 345° (NNW) 06:18:22 29.354- 29.394
Cosmos 2491 28 Aug 06:23:25 06:32:18 86° 84° (E) 06:41:09 435.465 / 435.565
HORYU 2 28 Aug 06:32:57 06:37:24 88° 103° (ESE) 06:41:48 437.375
GOMX 1 28 Aug 06:38:49 06:42:21 18° 91° (E) 06:45:45 467.674
STRAND 1 28 Aug 06:40:28 06:42:54 14° 64° (ENE) 06:45:19 437.568
LilacSat-2 28 Aug 06:43:16 06:45:13 14° 94° (E) 06:47:11 437.200
CUBESAT XI-V 28 Aug 06:46:40 06:50:29 26° 264° (W) 06:54:20 437.345
AO-7 28 Aug 06:51:09 06:57:43 27° 301° (WNW) 07:04:16 29.400- 29.500
Cubesat XI-IV 28 Aug 06:53:27 06:57:39 23° 95° (E) 07:01:50 437.490
BRITE-PL 28 Aug 07:03:11 07:08:55 75° 101° (ESE) 07:14:26 437.365/2234.400
NOAA 15 28 Aug 07:04:29 07:09:28 40° 99° (E) 07:14:26 137.62
CUTE-I 28 Aug 07:04:48 07:09:28 31° 97° (E) 07:14:07 437.470
PHONESAT 2.4 28 Aug 07:08:07 07:11:07 89° 186° (S) 07:14:05 2401.200-2431.200
AO-85 28 Aug 07:16:24 07:20:08 19° 310° (NW) 07:23:47 145.980
Cosmos 2504 28 Aug 07:30:06 07:37:51 40° 89° (E) 07:45:10 435.465 / 435.565
YUBILEINY 28 Aug 07:32:27 07:41:15 73° 277° (W) 07:50:07 435.215
NOAA 18 28 Aug 07:48:05 07:53:34 72° 103° (ESE) 07:58:59 137.9125
GOMX 1 28 Aug 08:15:31 08:20:40 47° 287° (WNW) 08:25:32 467.674
LilacSat-2 28 Aug 08:16:15 08:19:34 30° 287° (WNW) 08:22:53 437.200
STRAND 1 28 Aug 08:16:26 08:21:29 63° 259° (WSW) 08:26:33 437.568
DOVE 4 28 Aug 08:19:42 08:24:44 86° 103° (ESE) 08:29:26 437.250
Cosmos 2491 28 Aug 08:23:04 08:27:53 16° 281° (W) 08:32:43 435.465 / 435.565
RS-15 28 Aug 08:24:06 08:31:51 18° 23° (NNE) 08:39:36 29.354- 29.394
ISS 28 Aug 08:25:38 08:28:41 38° 133° (SE) 08:31:46 145.825
HO-68 28 Aug 08:26:44 08:32:37 27° 96° (E) 08:38:27 435.675
SO-50 28 Aug 08:31:29 08:35:02 22° 50° (NE) 08:38:32 436.795
Cubesat XI-IV 28 Aug 08:32:55 08:37:45 36° 290° (WNW) 08:42:34 437.490
BRITE-PL 28 Aug 08:43:49 08:46:36 14° 297° (WNW) 08:49:23 437.365/2234.400
CUTE-I 28 Aug 08:44:55 08:49:22 28° 292° (WNW) 08:53:50 437.470
NOAA 15 28 Aug 08:44:55 08:48:56 22° 293° (WNW) 08:52:58 137.62
PHONESAT 2.4 28 Aug 08:45:39 08:47:07 13° 217° (SW) 08:48:34 2401.200-2431.200
CINEMA 3 28 Aug 08:56:58 09:01:22 54° 100° (E) 09:05:32 145.822/145.860
BEESAT 3 28 Aug 09:06:03 09:08:15 15° 109° (ESE) 09:10:27 437.485
SEEDS 28 Aug 09:10:14 09:14:12 38° 99° (E) 09:18:08 437.485
UWE-3 28 Aug 09:10:33 09:11:30 11° 92° (E) 09:12:27 435.000/436.395/437.385
CUBEBUG 2 28 Aug 09:12:14 09:15:13 19° 94° (E) 09:18:10 437.445
Cosmos 2504 28 Aug 09:23:28 09:31:08 37° 283° (WNW) 09:38:25 435.465 / 435.565
PRISM 28 Aug 09:25:52 09:29:56 80° 77° (ENE) 09:34:04 437.425
NOAA 18 28 Aug 09:30:59 09:33:33 14° 298° (WNW) 09:36:06 137.9125
CANX-2 28 Aug 09:32:42 09:36:54 62° 284° (WNW) 09:41:05 2200.000
YUBILEINY 28 Aug 09:36:46 09:39:37 12° 297° (WNW) 09:42:29 435.215
CUTE 1.7 + AOD 2 28 Aug 09:38:42 09:42:54 61° 284° (WNW) 09:47:04 437.475
AAUSAT CUBESAT 2 28 Aug 09:39:45 09:43:46 46° 99° (E) 09:47:47 437.432
COMPASS 1 28 Aug 09:48:15 09:52:27 79° 103° (ESE) 09:56:38 437.405
AIST 1 28 Aug 09:52:27 09:56:45 69° 95° (E) 10:01:07
TIGRISAT 28 Aug 09:58:01 10:00:49 16° 68° (ENE) 10:03:35 435.000
ISS 28 Aug 10:02:46 10:05:15 20° 328° (NNW) 10:07:45 145.825
SO-50 28 Aug 10:11:27 10:15:35 35° 247° (WSW) 10:19:38 436.795
CUSAT 1 28 Aug 10:12:12 10:18:01 30° 76° (ENE) 10:24:35 437.405
HO-68 28 Aug 10:13:40 10:20:30 50° 291° (WNW) 10:27:18 435.675
BEESAT 2 28 Aug 10:24:42 10:28:34 65° 118° (ESE) 10:32:31 435.950
UNISAT 6 28 Aug 10:25:18 10:29:28 34° 72° (ENE) 10:33:33 437.425
Oscar 11 28 Aug 10:27:04 10:31:21 63° 100° (E) 10:35:37 145.826/435.025
FUNcube-1 28 Aug 10:35:24 10:39:32 73° 100° (E) 10:43:38 145.935
RS-15 28 Aug 10:36:14 10:48:17 53° 53° (NE) 11:00:01 29.354- 29.394
CINEMA 3 28 Aug 10:36:24 10:37:55 12° 296° (WNW) 10:39:25 145.822/145.860
BEESAT 3 28 Aug 10:41:58 10:45:34 35° 304° (WNW) 10:49:13 437.485
UWE-3 28 Aug 10:44:13 10:48:13 47° 286° (WNW) 10:52:11 435.000/436.395/437.385
SEEDS 28 Aug 10:47:11 10:49:32 15° 292° (WNW) 10:51:52 437.485
CUBEBUG 2 28 Aug 10:48:16 10:51:51 27° 289° (WNW) 10:55:21 437.445
JUGNU 28 Aug 10:55:31 10:58:12 13° 168° (SSE) 11:00:53 437.505
ZACube-1 28 Aug 10:57:20 11:01:23 53° 285° (WNW) 11:05:23 437.345
ANTELSAT 28 Aug 11:01:42 11:06:20 89° 72° (ENE) 11:10:53 437.575/2403.000
POPSAT HIP 1 28 Aug 11:04:14 11:05:28 11° 65° (ENE) 11:06:43 437.405
DELFI C3 28 Aug 11:13:26 11:17:27 88° 283° (WNW) 11:21:28 145.870
DANDE 28 Aug 11:14:08 11:19:25 35° 79° (E) 11:25:58 436.750
AAUSAT CUBESAT 2 28 Aug 11:17:05 11:18:49 12° 293° (WNW) 11:20:32 437.432
PCSat 28 Aug 11:20:29 11:24:38 23° 106° (ESE) 11:28:48 145.827
JAS-2 28 Aug 11:27:42 11:29:37 12° 60° (ENE) 11:31:35 435.910
DUCHIFAT 1 28 Aug 11:29:08 11:32:13 20° 69° (ENE) 11:35:17 145.980
QB50P2 28 Aug 11:32:13 11:35:46 26° 71° (ENE) 11:39:20 145.880/145.840
TIGRISAT 28 Aug 11:32:45 11:37:09 42° 261° (W) 11:41:28 435.000
POLYITAN 1 28 Aug 11:34:42 11:38:17 26° 71° (ENE) 11:41:52 437.675
HUMSAT D 28 Aug 11:37:56 11:42:02 81° 104° (ESE) 11:46:07 437.325/437.525
AUBIESAT-1 28 Aug 11:42:25 11:43:22 11° 95° (E) 11:44:17 437.475
NANOSAT C BR1 28 Aug 11:42:32 11:46:15 30° 72° (ENE) 11:49:59 145.865
M-CUBED/EXP-1 PRIME 28 Aug 11:47:15 11:49:52 17° 98° (E) 11:52:19 437.505
GONETS M04 28 Aug 11:49:05 11:56:39 34° 85° (E) 12:04:13
CUSAT 1 28 Aug 11:53:33 12:00:02 49° 266° (W) 12:07:31 437.405
UNISAT 6 28 Aug 12:02:54 12:06:11 19° 265° (W) 12:09:26 437.425
BEESAT 2 28 Aug 12:05:51 12:06:49 11° 313° (NW) 12:07:46 435.950
BUGSAT 1 28 Aug 12:20:41 12:24:28 32° 72° (ENE) 12:28:16 437.445
Cosmos 2499 28 Aug 12:25:31 12:33:16 46° 90° (E) 12:40:28 435.465 / 435.565
QB50P1 28 Aug 12:26:22 12:30:38 73° 258° (WSW) 12:34:55 145.935-145.965
ESTCUBE 1 28 Aug 12:29:10 12:33:30 44° 99° (E) 12:37:49 437.505/2401.250
AISAT 28 Aug 12:35:02 12:38:49 27° 97° (E) 12:42:34 437.250
POPSAT HIP 1 28 Aug 12:36:32 12:40:44 55° 260° (W) 12:44:57 437.405
UKube-1 28 Aug 12:41:24 12:43:44 14° 94° (E) 12:46:03 .
AIST 2 28 Aug 12:41:40 12:45:44 77° 117° (ESE) 12:49:51 435.215
JUGNU 28 Aug 12:42:34 12:46:28 18° 178° (S) 12:50:23 437.505
Oscar 19 28 Aug 12:44:46 12:46:48 12° 63° (ENE) 12:48:50 437.125/150
RS-15 28 Aug 12:49:12 13:00:31 45° 253° (WSW) 13:11:34 29.354- 29.394
DANDE 28 Aug 12:56:51 13:02:04 33° 266° (W) 13:08:28 436.750
PCSat 28 Aug 13:02:38 13:07:43 41° 301° (WNW) 13:12:51 145.827
DUCHIFAT 1 28 Aug 13:03:59 13:07:40 29° 263° (W) 13:11:23 145.980
QB50P2 28 Aug 13:08:12 13:11:30 22° 264° (W) 13:14:49 145.880/145.840
JAS-2 28 Aug 13:08:48 13:13:56 70° 258° (WSW) 13:19:22 435.910
POLYITAN 1 28 Aug 13:10:44 13:14:01 21° 264° (W) 13:17:19 437.675
AUBIESAT-1 28 Aug 13:14:22 13:18:07 41° 292° (WNW) 13:21:35 437.475
NANOSAT C BR1 28 Aug 13:19:00 13:21:58 18° 265° (W) 13:24:58 145.865
M-CUBED/EXP-1 PRIME 28 Aug 13:20:58 13:24:26 28° 295° (WNW) 13:27:40 437.505
VELOX 1 28 Aug 13:21:46 13:26:15 89° 267° (W) 13:30:41 145.980
CUBEBUG 1 28 Aug 13:22:00 13:26:24 70° 285° (WNW) 13:30:46 437.445
50 SAT 28 Aug 13:25:56 13:29:32 65° 284° (WNW) 13:33:09 437.505
SPROUT 28 Aug 13:36:09 13:40:24 66° 101° (E) 13:44:37 437.525
DX 1 28 Aug 13:36:34 13:40:59 89° 114° (ESE) 13:45:20 434.975-435.025
GONETS M04 28 Aug 13:44:52 13:53:07 46° 283° (WNW) 14:01:29
TISAT 1 28 Aug 13:53:28 13:56:27 19° 95° (E) 13:59:25 437.305
BUGSAT 1 28 Aug 13:57:01 13:59:52 17° 266° (W) 14:02:42 437.445
Gurwin Techsat 1B 28 Aug 13:58:14 14:02:49 30° 69° (ENE) 14:07:24 435.225
O/OREOS (USA 219) 28 Aug 14:03:26 14:07:43 47° 106° (ESE) 14:12:03 437.305
AO-7 28 Aug 14:06:45 14:09:24 12° 50° (NE) 14:12:04 29.400- 29.500
ESTCUBE 1 28 Aug 14:07:16 14:09:54 15° 294° (WNW) 14:12:32 437.505/2401.250
AO-85 28 Aug 14:10:40 14:13:28 17° 49° (NE) 14:16:09 145.980
AISAT 28 Aug 14:11:37 14:15:08 23° 291° (WNW) 14:18:38 437.250
UKube-1 28 Aug 14:15:51 14:19:54 40° 288° (WNW) 14:23:57 .
Cosmos 2499 28 Aug 14:19:25 14:26:25 31° 285° (WNW) 14:33:02 435.465 / 435.565
Oscar 19 28 Aug 14:20:19 14:25:27 72° 258° (WSW) 14:30:38 437.125/150
SRMSAT 28 Aug 14:21:09 14:24:47 17° 174° (S) 14:28:25 437.500
JUGNU 28 Aug 14:31:17 14:34:46 16° 188° (S) 14:38:15 437.505
ITUPSAT 1 28 Aug 14:51:55 14:54:47 16° 94° (E) 14:57:39 437.325
ISS 28 Aug 14:56:44 14:58:39 15° 28° (NNE) 15:00:35 145.825
SWISSCUBE 28 Aug 15:23:11 15:27:41 40° 99° (E) 15:32:08 437.505
TISAT 1 28 Aug 15:28:28 15:32:05 28° 289° (WNW) 15:35:39 437.305
ITAMSAT 1 28 Aug 15:36:12 15:41:24 81° 74° (ENE) 15:46:35 435.822/435.867
Gurwin Techsat 1B 28 Aug 15:38:09 15:42:40 28° 263° (W) 15:47:13 435.225
BEESAT 28 Aug 15:40:05 15:44:46 56° 101° (E) 15:49:26 436.000
O/OREOS (USA 219) 28 Aug 15:44:55 15:47:23 14° 302° (WNW) 15:49:52 437.305
AO-85 28 Aug 15:50:16 15:54:03 36° 247° (WSW) 15:57:38 145.980
AO-7 28 Aug 15:52:19 16:00:32 64° 69° (ENE) 16:08:45 29.400- 29.500
SRMSAT 28 Aug 16:09:27 16:13:14 18° 184° (S) 16:17:01 437.500
ITUPSAT 1 28 Aug 16:28:15 16:32:47 44° 287° (WNW) 16:37:17 437.325
ISS 28 Aug 16:32:09 16:35:25 66° 224° (SW) 16:38:39 145.825
SWISSCUBE 28 Aug 17:01:55 17:05:08 18° 293° (WNW) 17:08:19 437.505
KKS-1 28 Aug 17:10:37 17:15:00 56° 101° (E) 17:19:21 437.445
BEESAT 28 Aug 17:19:44 17:22:02 14° 295° (WNW) 17:24:19 436.000
MOZHAYETS 4 28 Aug 17:22:51 17:27:26 77° 283° (WNW) 17:32:01
Cosmos 2491 28 Aug 17:27:24 17:32:55 19° 80° (E) 17:38:27 435.465 / 435.565
HORYU 2 28 Aug 17:27:27 17:31:47 52° 74° (ENE) 17:36:08 437.375
NOAA 18 28 Aug 17:34:48 17:36:41 12° 61° (ENE) 17:38:35 137.9125
STARS 28 Aug 17:43:58 17:48:20 63° 101° (E) 17:52:39 437.465
GOMX 1 28 Aug 17:44:10 17:46:47 14° 63° (ENE) 17:49:28 467.674
YUBILEINY 28 Aug 17:47:03 17:55:28 49° 78° (ENE) 18:03:46 435.215
AO-7 28 Aug 17:47:14 17:53:42 25° 264° (W) 18:00:12 29.400- 29.500
SRMSAT 28 Aug 17:59:37 18:01:38 12° 194° (SSW) 18:03:41 437.500
BRITE-PL 28 Aug 18:10:24 18:15:04 56° 74° (ENE) 18:20:10 437.365/2234.400
Cubesat XI-IV 28 Aug 18:12:11 18:16:43 29° 69° (ENE) 18:21:14 437.490
NOAA 15 28 Aug 18:21:16 18:26:14 46° 72° (ENE) 18:31:16 137.62
CUTE-I 28 Aug 18:23:21 18:28:12 37° 70° (ENE) 18:33:04 437.470
CUBESAT XI-V 28 Aug 18:45:23 18:50:07 83° 283° (WNW) 18:54:49 437.345
BEESAT 2 28 Aug 18:46:46 18:49:10 15° 50° (NE) 18:51:33 435.950
KKS-1 28 Aug 18:49:24 18:51:02 12° 295° (WNW) 18:52:40 437.445
LilacSat-2 28 Aug 18:54:09 18:57:59 75° 77° (ENE) 19:01:49 437.200
HO-68 28 Aug 18:54:25 18:58:08 15° 57° (ENE) 19:01:50 435.675
BEESAT 3 28 Aug 19:01:50 19:05:36 41° 57° (ENE) 19:09:20 437.485
HORYU 2 28 Aug 19:07:05 19:08:35 11° 267° (W) 19:10:06 437.375
NOAA 18 28 Aug 19:11:01 19:16:34 84° 256° (WSW) 19:22:07 137.9125
GOMX 1 28 Aug 19:19:11 19:24:09 64° 260° (W) 19:29:27 467.674
Cosmos 2504 28 Aug 19:19:14 19:26:24 66° 82° (E) 19:33:31 435.465 / 435.565
Cosmos 2491 28 Aug 19:20:00 19:28:41 76° 277° (W) 19:37:29 435.465 / 435.565
DOVE 4 28 Aug 19:20:38 19:25:41 60° 75° (ENE) 19:30:54 437.250
STARS 28 Aug 19:23:33 19:24:05 10° 296° (WNW) 19:24:37 437.465
YUBILEINY 28 Aug 19:44:29 19:51:50 32° 275° (W) 19:59:10 435.215
BRITE-PL 28 Aug 19:51:45 19:54:00 13° 271° (W) 19:56:20 437.365/2234.400
Cubesat XI-IV 28 Aug 19:52:00 19:56:39 30° 263° (W) 20:01:20 437.490
CINEMA 3 28 Aug 19:54:29 19:59:03 37° 72° (ENE) 20:03:36 145.822/145.860
SEEDS 28 Aug 19:59:38 20:02:27 18° 69° (ENE) 20:05:16 437.485
NOAA 15 28 Aug 20:02:41 20:06:12 18° 266° (W) 20:09:45 137.62
CUTE-I 28 Aug 20:04:06 20:08:17 23° 265° (W) 20:12:28 437.470
AIST 1 28 Aug 20:04:48 20:06:44 13° 72° (ENE) 20:08:39
CUBEBUG 2 28 Aug 20:08:01 20:10:12 13° 66° (ENE) 20:12:21 437.445
PCSat 28 Aug 20:13:04 20:14:31 11° 45° (NE) 20:15:58 145.827
CANX-2 28 Aug 20:21:51 20:25:58 58° 76° (ENE) 20:30:06 2200.000
BEESAT 2 28 Aug 20:23:23 20:27:10 42° 246° (WSW) 20:30:56 435.950
AAUSAT CUBESAT 2 28 Aug 20:27:29 20:30:28 20° 70° (ENE) 20:33:27 437.432
CUTE 1.7 + AOD 2 28 Aug 20:27:44 20:31:51 58° 76° (ENE) 20:35:59 437.475
STRAND 1 28 Aug 20:30:12 20:35:14 57° 101° (E) 20:40:15 437.568
COMPASS 1 28 Aug 20:35:51 20:39:30 32° 72° (ENE) 20:43:11 437.405
HO-68 28 Aug 20:37:37 20:44:49 88° 74° (ENE) 20:52:03 435.675
BEESAT 3 28 Aug 20:41:00 20:42:52 13° 251° (WSW) 20:44:43 437.485
DOVE 4 28 Aug 21:01:07 21:03:43 14° 270° (W) 21:06:23 437.250
AIST 2 28 Aug 21:06:43 21:09:48 20° 51° (NE) 21:12:52 435.215
PRISM 28 Aug 21:12:09 21:14:22 14° 94° (E) 21:16:34 437.425
Cosmos 2504 28 Aug 21:14:39 21:18:56 17° 278° (W) 21:23:14 435.465 / 435.565
Oscar 11 28 Aug 21:18:42 21:22:29 31° 72° (ENE) 21:26:17 145.826/435.025
Cosmos 2491 28 Aug 21:23:57 21:27:02 12° 297° (WNW) 21:30:09 435.465 / 435.565
FUNcube-1 28 Aug 21:27:22 21:31:28 37° 73° (ENE) 21:35:30 145.935
CINEMA 3 28 Aug 21:32:23 21:36:11 21° 266° (W) 21:39:59 145.822/145.860
SEEDS 28 Aug 21:34:14 21:37:53 30° 263° (W) 21:41:35 437.485
UWE-3 28 Aug 21:36:58 21:41:34 86° 77° (ENE) 21:46:04 435.000/436.395/437.385
AIST 1 28 Aug 21:40:22 21:44:34 44° 268° (W) 21:48:42
CUBEBUG 2 28 Aug 21:41:44 21:46:21 54° 260° (W) 21:50:52 437.445
ZACube-1 28 Aug 21:49:05 21:53:34 74° 76° (ENE) 21:57:56 437.345
PCSat 28 Aug 21:53:20 21:58:47 79° 65° (ENE) 22:04:11 145.827
DELFI C3 28 Aug 21:56:10 21:59:38 31° 73° (ENE) 22:03:09 145.870
AAUSAT CUBESAT 2 28 Aug 22:02:18 22:05:45 26° 264° (W) 22:09:14 437.432
GONETS M04 28 Aug 22:05:28 22:09:11 13° 63° (ENE) 22:12:53
STRAND 1 28 Aug 22:11:05 22:13:53 15° 296° (WNW) 22:16:40 437.568
COMPASS 1 28 Aug 22:12:34 22:15:06 16° 266° (W) 22:17:41 437.405
AUBIESAT-1 28 Aug 22:24:25 22:26:19 12° 60° (ENE) 22:28:15 437.475
HUMSAT D 28 Aug 22:25:55 22:29:42 34° 73° (ENE) 22:33:27 437.325/437.525
M-CUBED/EXP-1 PRIME 28 Aug 22:29:45 22:32:53 18° 62° (ENE) 22:36:01 437.505
HO-68 28 Aug 22:30:03 22:33:15 13° 269° (W) 22:36:28 435.675
SO-50 28 Aug 22:43:35 22:46:18 15° 108° (ESE) 22:49:00 436.795
AIST 2 28 Aug 22:44:33 22:48:20 34° 247° (WSW) 22:52:06 435.215
PRISM 28 Aug 22:45:54 22:49:47 38° 287° (WNW) 22:53:39 437.425
Oscar 11 28 Aug 22:55:39 22:58:37 18° 266° (W) 23:01:36 145.826/435.025
ANTELSAT 28 Aug 22:57:32 23:00:53 22° 96° (E) 23:04:11 437.575/2403.000
FUNcube-1 28 Aug 23:05:01 23:07:46 16° 266° (W) 23:10:30 145.935
CUSAT 1 28 Aug 23:15:30 23:16:48 12° 85° (E) 23:18:10 437.405
ESTCUBE 1 28 Aug 23:25:45 23:29:31 27° 70° (ENE) 23:33:16 437.505/2401.250
TIGRISAT 28 Aug 23:27:29 23:31:37 48° 100° (E) 23:35:43 435.000
AISAT 28 Aug 23:30:00 23:32:51 17° 67° (ENE) 23:35:41 437.250
DELFI C3 28 Aug 23:32:19 23:34:32 15° 266° (W) 23:36:47 145.870
PCSat 28 Aug 23:40:09 23:41:25 11° 258° (WSW) 23:42:41 145.827
AUBIESAT-1 28 Aug 23:55:37 00:00:11 66° 254° (WSW) 00:04:49 437.475
UNISAT 6 28 Aug 23:56:28 00:00:43 68° 284° (WNW) 00:04:56 437.425
GONETS M04 28 Aug 23:58:33 00:07:28 78° 83° (E) 00:16:18
50 SAT 29 Aug 00:00:04 00:03:11 29° 73° (ENE) 00:06:19 437.505
M-CUBED/EXP-1 PRIME 29 Aug 00:02:32 00:06:59 45° 257° (WSW) 00:11:31 437.505
HUMSAT D 29 Aug 00:02:57 00:05:23 15° 266° (W) 00:07:49 437.325/437.525
Cosmos 2499 29 Aug 00:12:49 00:19:53 75° 82° (E) 00:27:06 435.465 / 435.565
CUBEBUG 1 29 Aug 00:14:14 00:18:33 62° 75° (ENE) 00:22:56 437.445
QB50P1 29 Aug 00:15:04 00:18:23 22° 96° (E) 00:21:40 145.935-145.965
VELOX 1 29 Aug 00:15:31 00:19:48 52° 74° (ENE) 00:24:08 145.980
O/OREOS (USA 219) 29 Aug 00:16:30 00:21:00 53° 68° (ENE) 00:25:29 437.305
JAS-2 29 Aug 00:20:28 00:25:44 22° 94° (E) 00:31:16 435.910
SO-50 29 Aug 00:21:33 00:26:19 54° 303° (WNW) 00:31:04 436.795
DANDE 29 Aug 00:23:10 00:25:16 22° 93° (E) 00:27:26 436.750
POPSAT HIP 1 29 Aug 00:24:55 00:28:35 29° 97° (E) 00:32:13 437.405
SPROUT 29 Aug 00:26:26 00:30:16 32° 72° (ENE) 00:34:07 437.525
DX 1 29 Aug 00:28:35 00:32:47 48° 73° (ENE) 00:37:00 434.975-435.025
ANTELSAT 29 Aug 00:34:02 00:37:30 25° 290° (WNW) 00:40:58 437.575/2403.000
DUCHIFAT 1 29 Aug 00:50:45 00:54:51 53° 100° (E) 00:58:55 145.980
QB50P2 29 Aug 00:55:12 00:59:27 77° 104° (ESE) 01:03:38 145.880/145.840
RS-15 29 Aug 00:55:26 01:05:51 44° 107° (ESE) 01:16:48 29.354- 29.394
CUSAT 1 29 Aug 00:56:41 00:58:32 15° 291° (WNW) 01:00:37 437.405
POLYITAN 1 29 Aug 00:57:44 01:01:57 78° 103° (ESE) 01:06:08 437.675
ESTCUBE 1 29 Aug 01:02:41 01:06:14 23° 264° (W) 01:09:48 437.505/2401.250
AISAT 29 Aug 01:04:50 01:08:58 38° 261° (W) 01:13:09 437.250
NANOSAT C BR1 29 Aug 01:05:08 01:09:21 90° 102° (ESE) 01:13:31 145.865
TIGRISAT 29 Aug 01:06:11 01:07:51 12° 294° (WNW) 01:09:31 435.000
UKube-1 29 Aug 01:06:27 01:10:46 76° 258° (WSW) 01:15:07 .
PHONESAT 2.4 29 Aug 01:10:47 01:13:31 32° 149° (SSE) 01:16:16 2401.200-2431.200
50 SAT 29 Aug 01:35:08 01:36:48 13° 266° (W) 01:38:29 437.505
BUGSAT 1 29 Aug 01:40:33 01:44:41 88° 105° (ESE) 01:48:44 437.445
QB50P1 29 Aug 01:50:39 01:54:03 24° 290° (WNW) 01:57:26 145.935-145.965
VELOX 1 29 Aug 01:54:59 01:56:31 12° 268° (W) 01:58:04 145.980
ITUPSAT 1 29 Aug 01:56:26 01:58:43 14° 65° (ENE) 02:01:00 437.325
GONETS M04 29 Aug 01:57:41 02:03:10 18° 280° (W) 02:08:39
O/OREOS (USA 219) 29 Aug 01:58:10 01:59:52 12° 262° (W) 02:01:33 437.305
POPSAT HIP 1 29 Aug 02:01:09 02:04:08 19° 291° (WNW) 02:07:07 437.405
SPROUT 29 Aug 02:03:20 02:06:14 18° 266° (W) 02:09:10 437.525
JAS-2 29 Aug 02:04:02 02:10:56 65° 286° (WNW) 02:18:30 435.910
DX 1 29 Aug 02:07:30 02:09:11 12° 267° (W) 02:10:53 434.975-435.025
Cosmos 2499 29 Aug 02:08:38 02:12:06 14° 278° (W) 02:15:35 435.465 / 435.565
TISAT 1 29 Aug 02:15:53 02:20:04 61° 259° (W) 02:24:18 437.305
Gurwin Techsat 1B 29 Aug 02:18:45 02:21:48 15° 93° (E) 02:24:51 435.225
